When you browse on this site, cookies collect data to enhance your experience and personalize the content and advertising you see.
Visit our Privacy Policy to learn more. By continuing to use the site, you agree to this use of cookies and data.
  • In Deutschland
  • Länderverzeichnis
  • Für 7 Tage
  • Wassertemperatur
  • Satellitenkarten
  • Wetterkarte
  • Widgets
  • user-avatar
    Anmelden

    Stündliche Wetter Generalskoe

    Heute, 20 November, Dienstag

    Zeit Temperatur Niederschläge Wind Luftdruck Luftfeuchtigkeit
    00:00 -3°C° 0.1 mm 4 m/S 765 mmHg 81%
    01:00 -3°C° 0.3 mm 4 m/S 765 mmHg 84%
    02:00 -4°C° 0.3 mm 5 m/S 764 mmHg 86%
    03:00 -2°C° 0 mm 4 m/S 764 mmHg 90%
    04:00 -2°C° 0.6 mm 5 m/S 764 mmHg 91%
    05:00 -2°C° 0.6 mm 5 m/S 763 mmHg 92%
    06:00 -3°C° 0.6 mm 6 m/S 763 mmHg 93%
    07:00 -3°C° 0.4 mm 6 m/S 763 mmHg 92%
    08:00 -3°C° 0.4 mm 6 m/S 763 mmHg 92%
    09:00 -3°C° 0 mm 7 m/S 762 mmHg 92%
    10:00 -3°C° 0.3 mm 6 m/S 762 mmHg 92%
    11:00 -2°C° 0.3 mm 6 m/S 762 mmHg 93%
    12:00 -2°C° 0.3 mm 6 m/S 762 mmHg 93%
    13:00 -2°C° 0.2 mm 6 m/S 762 mmHg 93%
    14:00 -2°C° 0.2 mm 6 m/S 762 mmHg 94%
    15:00 -2°C° 0.2 mm 6 m/S 761 mmHg 94%
    16:00 -2°C° 0.4 mm 6 m/S 762 mmHg 93%
    17:00 -2°C° 0.4 mm 6 m/S 762 mmHg 93%
    18:00 -2°C° 0.4 mm 6 m/S 762 mmHg 93%
    19:00 -1°C° 0 mm 5 m/S 762 mmHg 92%
    20:00 -2°C° 0 mm 5 m/S 763 mmHg 91%
    21:00 -2°C° 0 mm 5 m/S 763 mmHg 91%
    22:00 -2°C° 0 mm 5 m/S 763 mmHg 91%
    23:00 -3°C° 0 mm 4 m/S 764 mmHg 91%

    Morgen, 21 November, Mittwoch

    Zeit Temperatur Niederschläge Wind Luftdruck Luftfeuchtigkeit
    00:00 -4°C° 0 mm 4 m/S 764 mmHg 91%
    01:00 -4°C° 0 mm 4 m/S 764 mmHg 90%
    02:00 -5°C° 0 mm 4 m/S 765 mmHg 89%
    03:00 -5°C° 0 mm 3 m/S 765 mmHg 88%
    04:00 -6°C° 0 mm 3 m/S 765 mmHg 87%
    05:00 -6°C° 0 mm 3 m/S 765 mmHg 86%
    06:00 -6°C° 0 mm 3 m/S 765 mmHg 85%
    07:00 -6°C° 0 mm 3 m/S 765 mmHg 85%
    08:00 -6°C° 0 mm 3 m/S 765 mmHg 85%
    09:00 -6°C° 0 mm 3 m/S 765 mmHg 85%
    10:00 -4°C° 0 mm 3 m/S 765 mmHg 85%
    11:00 -2°C° 0 mm 3 m/S 765 mmHg 85%
    12:00 -1°C° 0 mm 3 m/S 765 mmHg 85%
    13:00 -1°C° 0 mm 3 m/S 765 mmHg 87%
    14:00 -1°C° 0 mm 2 m/S 765 mmHg 88%
    15:00 -1°C° 0 mm 2 m/S 764 mmHg 89%
    16:00 -2°C° 0 mm 2 m/S 764 mmHg 90%
    17:00 -3°C° 0 mm 2 m/S 764 mmHg 91%
    18:00 -4°C° 0 mm 2 m/S 764 mmHg 92%
    19:00 -4°C° 0 mm 2 m/S 764 mmHg 91%
    20:00 -4°C° 0 mm 2 m/S 764 mmHg 90%
    21:00 -4°C° 0 mm 2 m/S 764 mmHg 90%
    22:00 -4°C° 0 mm 2 m/S 764 mmHg 89%
    23:00 -4°C° 0 mm 2 m/S 764 mmHg 89%

    übermorgen, 22 November, Donnerstag

    Zeit Temperatur Niederschläge Wind Luftdruck Luftfeuchtigkeit
    00:00 -5°C° 0 mm 2 m/S 764 mmHg 88%
    01:00 -5°C° 0 mm 2 m/S 764 mmHg 88%
    02:00 -5°C° 0 mm 2 m/S 764 mmHg 88%
    03:00 -5°C° 0 mm 2 m/S 763 mmHg 88%
    04:00 -5°C° 0 mm 2 m/S 763 mmHg 88%
    05:00 -5°C° 0 mm 2 m/S 763 mmHg 88%
    06:00 -5°C° 0 mm 2 m/S 763 mmHg 88%
    07:00 -5°C° 0 mm 2 m/S 764 mmHg 88%
    08:00 -5°C° 0 mm 2 m/S 764 mmHg 88%
    09:00 -5°C° 0 mm 2 m/S 764 mmHg 88%
    10:00 -4°C° 0 mm 2 m/S 764 mmHg 86%
    11:00 -3°C° 0 mm 2 m/S 764 mmHg 85%
    12:00 -2°C° 0 mm 3 m/S 764 mmHg 84%
    13:00 -2°C° 0 mm 2 m/S 764 mmHg 84%
    14:00 -2°C° 0 mm 2 m/S 763 mmHg 85%
    15:00 -2°C° 0 mm 2 m/S 763 mmHg 85%
    16:00 -3°C° 0 mm 2 m/S 763 mmHg 86%
    17:00 -4°C° 0 mm 2 m/S 763 mmHg 87%
    18:00 -5°C° 0 mm 2 m/S 763 mmHg 88%
    19:00 -5°C° 0 mm 2 m/S 764 mmHg 88%
    20:00 -5°C° 0 mm 2 m/S 764 mmHg 87%
    21:00 -5°C° 0 mm 2 m/S 764 mmHg 87%
    22:00 -5°C° 0 mm 2 m/S 764 mmHg 87%
    23:00 -5°C° 0 mm 2 m/S 764 mmHg 86%

    23 November, Freitag

    Zeit Temperatur Niederschläge Wind Luftdruck Luftfeuchtigkeit
    00:00 -5°C° 0 mm 2 m/S 764 mmHg 86%
    01:00 -6°C° 0 mm 3 m/S 763 mmHg 86%
    02:00 -6°C° 0 mm 3 m/S 763 mmHg 86%
    03:00 -6°C° 0 mm 3 m/S 763 mmHg 85%
    04:00 -6°C° 0 mm 3 m/S 763 mmHg 85%
    05:00 -6°C° 0 mm 3 m/S 763 mmHg 85%
    06:00 -7°C° 0 mm 4 m/S 763 mmHg 86%
    07:00 -7°C° 0 mm 4 m/S 763 mmHg 86%
    08:00 -7°C° 0 mm 4 m/S 764 mmHg 86%
    09:00 -7°C° 0 mm 4 m/S 764 mmHg 87%
    10:00 -5°C° 0 mm 4 m/S 765 mmHg 86%
    11:00 -4°C° 0 mm 4 m/S 765 mmHg 84%
    12:00 -3°C° 0 mm 4 m/S 765 mmHg 83%
    13:00 -3°C° 0 mm 4 m/S 766 mmHg 83%
    14:00 -1°C° 0 mm 3 m/S 766 mmHg 83%
    15:00 -1°C° 0 mm 3 m/S 767 mmHg 83%
    16:00 -2°C° 0 mm 3 m/S 767 mmHg 84%
    17:00 -4°C° 0 mm 3 m/S 768 mmHg 85%
    18:00 -4°C° 0 mm 2 m/S 769 mmHg 86%
    19:00 -4°C° 0 mm 2 m/S 770 mmHg 85%
    20:00 -4°C° 0 mm 2 m/S 770 mmHg 84%
    21:00 -5°C° 0 mm 2 m/S 771 mmHg 83%
    22:00 -5°C° 0 mm 2 m/S 771 mmHg 82%
    23:00 -5°C° 0 mm 2 m/S 772 mmHg 81%

    24 November, Samstag

    Zeit Temperatur Niederschläge Wind Luftdruck Luftfeuchtigkeit
    00:00 -6°C° 0 mm 2 m/S 772 mmHg 80%
    01:00 -6°C° 0 mm 2 m/S 772 mmHg 79%
    02:00 -6°C° 0 mm 2 m/S 772 mmHg 77%
    03:00 -4°C° 0 mm 1 m/S 772 mmHg 76%
    04:00 -6°C° 0 mm 1 m/S 772 mmHg 75%
    05:00 -6°C° 0 mm 1 m/S 772 mmHg 74%
    06:00 -6°C° 0 mm 1 m/S 772 mmHg 73%
    07:00 -7°C° 0 mm 2 m/S 773 mmHg 73%
    08:00 -7°C° 0 mm 2 m/S 773 mmHg 73%
    09:00 -6°C° 0 mm 2 m/S 773 mmHg 74%
    10:00 -5°C° 0 mm 2 m/S 773 mmHg 72%
    11:00 -4°C° 0 mm 2 m/S 773 mmHg 71%
    12:00 -3°C° 0 mm 2 m/S 772 mmHg 69%
    13:00 -3°C° 0 mm 2 m/S 772 mmHg 71%
    14:00 -3°C° 0 mm 2 m/S 771 mmHg 74%
    15:00 -3°C° 0 mm 2 m/S 771 mmHg 76%
    16:00 -4°C° 0 mm 2 m/S 771 mmHg 77%
    17:00 -5°C° 0 mm 2 m/S 770 mmHg 79%
    18:00 -6°C° 0 mm 2 m/S 770 mmHg 81%
    19:00 -6°C° 0 mm 2 m/S 770 mmHg 81%
    20:00 -6°C° 0 mm 2 m/S 770 mmHg 80%
    21:00 -6°C° 0 mm 2 m/S 770 mmHg 80%
    22:00 -6°C° 0 mm 2 m/S 769 mmHg 80%
    23:00 -6°C° 0 mm 2 m/S 769 mmHg 80%

    25 November, Sonntag

    Zeit Temperatur Niederschläge Wind Luftdruck Luftfeuchtigkeit
    00:00 -6°C° 0 mm 2 m/S 768 mmHg 80%
    01:00 -7°C° 0 mm 2 m/S 768 mmHg 81%
    02:00 -7°C° 0 mm 2 m/S 768 mmHg 82%
    03:00 -6°C° 0 mm 1 m/S 767 mmHg 83%
    04:00 -7°C° 0 mm 2 m/S 767 mmHg 83%
    05:00 -7°C° 0 mm 2 m/S 767 mmHg 84%
    06:00 -7°C° 0 mm 2 m/S 766 mmHg 84%
    07:00 -7°C° 0 mm 2 m/S 766 mmHg 84%
    08:00 -6°C° 0 mm 2 m/S 766 mmHg 84%
    09:00 -6°C° 0 mm 2 m/S 766 mmHg 83%
    10:00 -3°C° 0 mm 1 m/S 765 mmHg 80%
    11:00 -1°C° 0 mm 1 m/S 765 mmHg 78%
    12:00 0°C° 0 mm 1 m/S 765 mmHg 75%
    13:00 0°C° 0 mm 1 m/S 764 mmHg 76%
    14:00 0°C° 0 mm 1 m/S 764 mmHg 78%
    15:00 +1°C° 0 mm 1 m/S 763 mmHg 80%
    16:00 0°C° 0 mm 1 m/S 763 mmHg 81%
    17:00 -1°C° 0 mm 1 m/S 763 mmHg 82%
    18:00 -2°C° 0 mm 1 m/S 763 mmHg 83%
    19:00 -2°C° 0 mm 1 m/S 763 mmHg 83%
    20:00 -2°C° 0 mm 1 m/S 762 mmHg 83%
    21:00 -2°C° 0 mm 1 m/S 762 mmHg 84%
    22:00 -2°C° 0 mm 1 m/S 762 mmHg 84%
    23:00 -2°C° 0 mm 1 m/S 762 mmHg 84%
    Mehr zeigen